SCP
-0 0 0 0 0 0 0 0 0 0 -0 -0 -0 0 0 0 -0 -0 0 -0 -0 -1 -0 -0 -0 -0 -0 -0 -0 -0 -0 -0 -0 -0 -0 -0 0 0 0 -0 -0 0 0
0 0 0 0 0 0 0 0 0 -0 -0 0 0 0 0 0 0 0 -0 -0 -0 -1 -1 -0 -0 -0 -0 -0 -0 -0 -0 -0 -0 -0 -0 -0 -0 0 0 -0 0 -0 0
0 0 0 0 0 0 0 -0 0 0 0 0 0 0 0 0 0 -0 -0 0 -0 -0 -1 -1 -0 -0 -0 -0 -0 -0 -0 -0 -0 -0 -0 -0 -0 0 0 0 -0 0 0
0 0 0 0 0 0 0 0 0 0 0 -0 0 0 -0 -0 -0 -0 0 0 0 0 -0 -0 -0 -0 -0 -0 -0 -0 -0 -0 -0 -0 -0 -0 -0 -0 -0 0 0 0 0
0 0 0 -0 -0 -0 -0 0 0 -0 0 0 -0 0 0 0 -0 0 0 0 0 0 0 -0 -0 -0 -0 -0 -0 -0 -0 -0 -0 -0 -0 -0 -0 -0 -0 -0 0 -0 0
-0 -0 -0 -0 -0 0 -0 0 -0 -0 0 -0 -0 0 -0 -0 0 0 0 0 0 0 0 0 0 0 -0 -0 0 -0 0 0 -0 -0 -0 -0 -0 -0 -0 -0 -0 0 -0
0 -0 0 0 0 0 0 0 0 0 -0 -0 -0 0 0 0 -0 0 0 0 0 0 0 0 0 0 0 -0 -0 -0 -0 -0 -0 -0 -0 -0 -0 -0 -0 -0 -0 -0 0
0 0 -0 0 0 0 0 0 0 0 0 0 0 0 0 0 0 0 0 0 0 0 0 0 0 0 0 0 0 -0 -0 -0 -0 -0 -0 0 -0 -0 -0 -0 0 0 -0
0 0 0 0 0 0 0 0 0 0 0 0 0 0 0 0 0 0 0 0 0 0 0 0 0 0 0 0 0 -0 -0 -0 -0 -0 -0 -0 -0 0 -0 0 -0 -0 -0
0 -0 0 0 0 0 0 0 0 0 0 0 0 0 0 0 0 0 0 0 0 0 0 0 -0 -0 -0 0 0 -0 -0 0 -0 -0 -0 -0 -0 -0 0 -0 -0 0 0
0 0 0 0 0 0 0 0 0 0 0 0 0 0 0 0 0 0 0 0 0 0 0 -0 -0 -0 -0 -0 -0 -0 -0 -0 -0 -0 -0 -0 -0 -0 -0 -0 -0 -0 0
0 0 0 0 0 0 0 0 0 0 0 0 0 0 0 0 0 0 0 0 -0 -0 -0 0 0 0 -0 -0 -0 -0 -0 -0 -0 -0 -0 -0 0 0 0 0 -0 -0 -0
0 0 0 0 0 0 0 0 0 0 0 0 0 0 0 0 0 0 0 -0 0 -0 0 0 0 0 0 -0 -0 -0 -0 -0 -0 0 -0 -0 -0 -0 0 0 0 -0 -0
0 0 0 0 0 0 0 0 0 0 0 0 0 0 0 0 0 0 0 0 0 0 0 0 0 0 0 0 0 0 0 0 0 0 0 0 0 0 -0 -0 -0 -0 0
0 0 0 0 0 0 0 0 0 0 0 0 0 0 0 0 0 0 0 0 0 0 0 0 0 0 0 0 0 0 0 0 0 0 0 0 0 0 0 0 0 0 0
0 0 0 0 0 0 0 0 0 0 0 0 0 0 0 0 0 0 0 0 0 0 0 0 0 0 0 0 0 0 0 0 0 0 0 0 0 0 0 0 0 0 0
0 0 0 0 0 0 0 0 0 0 0 0 0 0 0 0 0 0 0 0 0 0 0 0 0 0 0 0 0 0 0 0 0 0 0 0 0 0 0 0 0 0 0
0 0 0 0 0 0 0 0 0 0 0 0 0 0 0 0 0 0 0 0 0 0 0 0 0 0 0 0 0 0 0 0 0 0 0 0 0 0 0 0 0 0 0
0 0 0 0 0 0 0 0 0 0 0 0 0 0 0 0 0 0 0 0 0 0 0 0 0 0 0 0 0 0 0 0 0 0 0 0 0 0 0 0 0 0 0
0 0 0 0 0 0 0 0 0 0 0 0 0 0 0 0 0 0 0 0 0 0 0 0 0 0 0 0 0 0 0 0 0 0 0 0 0 0 0 0 0 0 0
0 0 0 0 0 0 0 0 0 0 0 0 0 0 0 0 0 0 0 0 0 0 0 0 0 0 0 0 0 0 0 0 0 0 0 0 0 0 0 0 0 0 0
0 0 0 0 0 0 0 0 0 0 0 0 0 0 0 0 0 0 0 0 0 0 0 0 0 0 0 0 0 0 0 0 0 0 0 0 0 0 0 0 0 0 0
0 0 0 0 0 0 0 0 0 0 0 0 0 0 0 0 0 0 0 0 0 0 0 0 0 0 0 0 0 0 0 0 0 0 0 0 0 0 0 0 0 0 0
0 0 0 0 0 0 0 0 0 0 0 0 0 0 0 0 0 0 0 0 0 0 0 0 0 0 0 0 0 0 0 0 0 0 0 0 0 0 0 0 0 0 0
0 0 0 0 0 0 0 0 0 0 0 0 0 0 0 0 0 0 0 0 0 0 0 0 0 0 0 0 0 0 0 0 0 0 0 0 0 0 0 0 0 0 0
0 0 0 0 0 0 0 0 0 0 0 0 0 0 0 0 0 0 0 0 0 0 0 0 0 0 0 0 0 0 0 0 0 0 0 0 0 0 0 0 0 0 0
Wind_Speed_500mb
12 11 9 11 9 5 10 9 14 18 19 17 17 20 21 24 26 23 23 24 23 22 22 22 19 17 15 13 15 15 12 11 13 11 23 29 25 28 29 29 26 23 22
14 11 13 12 14 12 12 12 14 18 22 22 26 28 29 27 28 29 29 30 30 27 27 28 24 20 20 20 18 19 20 18 16 15 18 30 27 28 28 27 26 24 22
17 15 13 13 11 14 16 17 20 21 25 31 30 28 29 29 29 29 32 34 32 33 31 30 34 26 24 24 25 25 27 26 24 25 24 28 28 28 30 27 25 26 27
20 19 20 20 17 19 21 23 23 22 27 31 32 28 32 32 34 34 35 32 37 36 36 32 38 38 35 30 28 31 31 30 30 30 33 33 33 32 32 34 31 30 29
22 23 20 19 22 18 18 17 19 19 18 18 20 21 20 21 26 29 31 34 30 32 30 31 40 41 43 42 37 35 40 42 38 42 40 41 42 40 36 32 35 35 33
21 22 19 17 16 15 15 16 18 22 17 18 21 22 22 24 28 34 37 33 31 30 26 30 28 42 52 52 45 42 42 37 40 45 49 49 48 47 45 43 41 40 38
16 19 18 17 19 21 20 18 24 22 21 21 23 20 25 25 24 28 30 24 20 25 27 30 36 38 42 51 56 53 48 48 43 53 46 52 53 52 51 49 46 45 43
18 19 17 21 23 22 25 29 30 22 21 18 18 17 14 13 10 7 6 8 7 7 14 20 24 24 28 31 38 44 49 44 39 47 46 48 53 55 54 53 52 51 47
18 17 15 19 21 20 22 21 22 24 23 22 17 14 9 6 8 7 2 1 3 4 9 17 23 25 22 19 18 22 40 38 38 39 48 49 51 53 55 56 56 54 50
13 13 14 14 13 15 15 18 22 20 19 22 16 17 15 13 6 5 9 12 12 11 9 18 21 18 18 21 23 17 14 30 37 37 41 47 45 47 48 55 58 56 53
8 14 14 17 20 21 22 20 18 16 13 8 12 14 13 16 17 14 15 15 15 15 16 19 17 15 14 11 13 19 23 14 19 39 44 46 52 51 50 50 53 58 58
16 18 20 19 20 19 17 13 12 11 11 10 12 13 16 18 18 18 19 20 23 19 23 26 22 18 15 11 9 10 10 13 18 22 24 31 39 54 52 51 52 53 60
19 21 19 18 20 20 15 14 12 12 13 16 17 17 18 20 22 21 20 22 21 19 18 21 18 15 20 15 8 3 2 3 6 12 21 23 23 34 52 54 54 50 57
22 22 19 19 20 17 13 14 17 17 18 20 20 21 23 24 26 25 20 19 23 26 23 14 8 13 22 22 14 9 6 2 3 7 12 14 17 21 31 51 55 48 44
23 19 18 17 17 14 11 12 15 17 19 20 20 22 22 22 22 22 20 20 21 21 24 18 9 7 13 18 17 16 14 13 15 19 22 20 17 14 18 26 34 42 48
20 18 17 16 13 9 7 8 11 12 14 15 14 14 14 15 16 16 16 20 22 26 31 21 24 22 19 20 22 23 23 22 22 24 30 33 28 24 20 20 25 30 36
23 19 16 14 8 4 5 5 4 4 3 4 4 8 12 13 14 14 15 16 20 26 33 37 35 30 32 32 33 36 32 27 18 16 24 23 28 26 24 21 18 18 20
25 21 18 14 11 8 5 4 4 3 3 4 5 8 10 11 12 13 15 19 18 19 25 29 29 25 23 25 24 25 28 26 22 23 20 16 26 23 21 27 27 19 16
28 25 19 17 15 10 8 7 9 6 3 3 6 9 11 13 14 15 16 15 19 25 28 31 30 27 26 24 23 20 20 25 19 23 17 14 14 28 32 31 27 29 30
32 27 23 21 18 15 12 10 9 6 4 5 8 8 9 12 15 15 14 15 16 20 27 33 36 33 30 28 28 23 16 20 21 24 20 20 16 17 28 27 27 28 32
36 31 29 25 22 16 14 14 13 13 10 13 15 12 8 7 10 12 15 14 18 24 26 27 29 30 29 27 27 28 28 25 24 23 20 24 28 25 22 30 32 33 30
38 36 34 28 24 20 18 17 17 15 15 14 15 17 14 14 12 11 14 17 18 21 22 23 24 25 23 24 26 27 31 34 30 28 33 35 33 26 28 27 28 27 27
40 38 36 32 26 23 21 19 17 17 17 16 14 18 19 14 17 16 14 12 16 20 20 20 23 22 23 21 23 23 26 27 30 28 29 27 25 26 25 23 23 23 21
39 37 36 33 29 26 25 23 19 19 19 18 18 17 15 15 17 18 19 19 22 26 26 25 26 24 25 26 28 25 26 26 27 28 23 19 19 23 24 19 19 22 17
47 36 35 34 30 27 26 23 20 17 19 19 16 15 15 13 13 18 22 23 24 26 29 29 28 28 26 26 27 32 28 24 22 19 21 21 18 19 25 24 23 22 19
46 34 34 33 30 27 24 20 17 13 10 12 11 9 12 15 17 20 24 25 26 27 24 22 26 31 33 31 30 26 23 18 14 17 13 20 18 21 26 25 25 27 26
Wind_Direction_500mb
184 183 168 171 186 187 194 218 214 215 218 219 239 240 249 259 262 262 274 274 280 285 269 270 277 270 257 229 219 219 219 199 181 169 179 180 170 169 160 163 159 162 161
205 223 222 232 237 246 226 240 229 222 229 245 247 257 265 268 259 263 271 277 275 268 265 251 261 265 254 240 228 220 218 216 207 193 176 176 173 172 172 173 172 168 161
226 240 245 253 275 252 246 236 234 252 253 253 256 262 269 269 264 273 277 275 270 265 268 259 246 259 248 234 228 224 226 224 219 208 200 191 191 185 182 183 188 180 172
248 260 263 264 272 260 246 252 249 257 260 259 260 266 268 266 268 280 282 275 270 266 270 263 246 247 249 240 234 226 227 227 229 228 218 208 205 202 200 199 194 193 190
258 262 265 264 265 253 244 244 238 261 257 258 275 286 283 283 279 280 283 278 272 264 267 256 254 247 250 251 247 237 222 219 227 223 226 225 218 213 212 208 206 207 216
244 251 251 246 258 271 265 265 267 271 274 277 281 279 276 280 275 275 283 283 272 256 262 248 264 252 253 257 256 252 244 226 230 225 223 223 226 225 226 228 228 228 227
240 247 255 255 267 272 255 262 271 282 276 279 277 282 276 275 282 283 273 285 275 253 252 258 257 264 265 261 257 251 252 244 244 226 226 224 225 227 228 230 231 233 234
262 266 261 257 265 275 267 271 279 273 283 278 278 271 285 280 272 251 298 295 286 264 227 249 260 275 283 264 260 261 263 246 245 250 234 229 227 228 229 230 232 235 235
277 275 270 278 281 283 268 270 276 282 272 267 266 253 269 267 301 219 244 81 199 207 247 257 263 276 281 272 292 294 245 237 236 248 234 237 227 229 229 233 232 233 237
272 291 282 274 286 296 293 285 285 287 271 256 245 242 244 261 294 284 252 262 257 260 280 297 284 276 287 286 290 293 264 237 247 240 235 237 240 236 233 232 233 236 237
252 286 285 291 302 301 295 281 275 274 277 262 242 244 255 270 281 282 288 260 265 250 278 291 305 271 291 295 297 295 286 271 261 243 244 246 239 240 236 238 236 235 235
297 287 287 298 306 308 295 287 270 259 258 248 253 261 271 277 284 276 281 276 280 257 272 284 288 260 255 287 313 295 280 266 269 257 253 256 243 240 239 239 238 236 238
288 287 292 297 299 302 296 269 266 264 256 252 252 263 273 278 279 279 282 286 288 284 290 278 284 236 232 261 254 239 52 16 343 273 267 266 261 245 241 243 245 243 244
279 284 280 286 297 300 277 253 245 251 254 259 262 266 271 275 277 278 274 275 282 285 288 277 274 219 220 229 206 196 185 242 285 271 269 275 268 255 246 242 243 244 247
273 269 272 282 300 299 279 251 238 240 246 253 262 267 270 273 276 276 268 260 263 276 290 262 251 220 211 212 225 238 253 263 280 283 268 269 255 257 257 253 244 243 245
263 259 267 276 288 288 275 255 248 251 260 266 267 270 274 279 285 291 279 256 259 266 276 278 259 262 255 255 256 259 269 268 273 280 281 268 256 261 257 260 254 247 244
250 246 259 264 261 259 273 249 244 258 259 270 282 293 295 292 288 289 292 286 273 272 277 281 284 279 278 276 269 264 264 262 268 290 300 270 250 260 261 273 248 246 250
249 248 254 233 225 221 221 197 193 220 255 272 300 318 313 306 304 301 288 272 271 272 279 287 289 285 284 285 286 277 259 249 256 289 314 286 242 245 261 263 249 237 254
242 239 234 228 224 220 209 187 171 168 193 212 274 286 294 302 301 304 304 290 271 265 269 273 273 274 280 285 284 281 252 248 258 283 297 254 245 256 253 250 245 250 274
242 235 230 224 221 220 222 207 210 221 222 273 288 284 291 289 280 277 283 290 295 288 278 274 274 275 272 270 275 269 266 254 252 261 271 279 299 304 249 237 248 258 265
241 231 227 228 224 223 231 227 235 245 265 288 278 261 267 299 313 296 291 289 290 295 293 282 278 276 272 271 273 278 280 284 281 278 280 274 274 278 272 250 254 268 269
238 233 232 233 235 236 233 230 243 250 275 282 278 265 273 285 306 313 287 291 299 299 292 284 277 281 280 272 270 275 282 285 292 278 280 280 280 274 264 251 254 254 263
236 236 236 238 241 246 242 239 240 258 279 286 277 258 253 258 277 300 304 306 317 323 305 284 296 295 288 285 280 281 285 284 282 284 281 278 269 259 259 255 257 251 237
235 240 241 242 247 246 246 248 251 261 271 277 283 275 264 263 280 281 288 299 312 322 315 292 280 277 277 276 282 288 293 292 286 280 277 276 275 257 253 251 245 245 238
211 238 243 247 247 245 246 246 250 253 264 273 273 274 263 270 260 272 283 286 292 298 300 294 278 271 264 270 275 283 294 299 308 289 276 277 272 263 261 250 238 227 225
211 215 241 247 243 240 238 242 242 244 268 280 287 281 263 259 255 262 266 274 290 297 295 291 291 278 270 269 269 272 277 279 304 318 295 295 282 262 263 259 241 230 228
Wind_Speed_850mb
12 11 9 11 9 5 10 9 14 18 19 17 17 20 21 24 26 23 23 24 23 22 22 22 19 17 15 13 15 15 12 11 13 11 23 29 25 28 29 29 26 23 22
14 11 13 12 14 12 12 12 14 18 22 22 26 28 29 27 28 29 29 30 30 27 27 28 24 20 20 20 18 19 20 18 16 15 18 30 27 28 28 27 26 24 22
17 15 13 13 11 14 16 17 20 21 25 31 30 28 29 29 29 29 32 34 32 33 31 30 34 26 24 24 25 25 27 26 24 25 24 28 28 28 30 27 25 26 27
20 19 20 20 17 19 21 23 23 22 27 31 32 28 32 32 34 34 35 32 37 36 36 32 38 38 35 30 28 31 31 30 30 30 33 33 33 32 32 34 31 30 29
22 23 20 19 22 18 18 17 19 19 18 18 20 21 20 21 26 29 31 34 30 32 30 31 40 41 43 42 37 35 40 42 38 42 40 41 42 40 36 32 35 35 33
21 22 19 17 16 15 15 16 18 22 17 18 21 22 22 24 28 34 37 33 31 30 26 30 28 42 52 52 45 42 42 37 40 45 49 49 48 47 45 43 41 40 38
16 19 18 17 19 21 20 18 24 22 21 21 23 20 25 25 24 28 30 24 20 25 27 30 36 38 42 51 56 53 48 48 43 53 46 52 53 52 51 49 46 45 43
18 19 17 21 23 22 25 29 30 22 21 18 18 17 14 13 10 7 6 8 7 7 14 20 24 24 28 31 38 44 49 44 39 47 46 48 53 55 54 53 52 51 47
18 17 15 19 21 20 22 21 22 24 23 22 17 14 9 6 8 7 2 1 3 4 9 17 23 25 22 19 18 22 40 38 38 39 48 49 51 53 55 56 56 54 50
13 13 14 14 13 15 15 18 22 20 19 22 16 17 15 13 6 5 9 12 12 11 9 18 21 18 18 21 23 17 14 30 37 37 41 47 45 47 48 55 58 56 53
8 14 14 17 20 21 22 20 18 16 13 8 12 14 13 16 17 14 15 15 15 15 16 19 17 15 14 11 13 19 23 14 19 39 44 46 52 51 50 50 53 58 58
16 18 20 19 20 19 17 13 12 11 11 10 12 13 16 18 18 18 19 20 23 19 23 26 22 18 15 11 9 10 10 13 18 22 24 31 39 54 52 51 52 53 60
19 21 19 18 20 20 15 14 12 12 13 16 17 17 18 20 22 21 20 22 21 19 18 21 18 15 20 15 8 3 2 3 6 12 21 23 23 34 52 54 54 50 57
22 22 19 19 20 17 13 14 17 17 18 20 20 21 23 24 26 25 20 19 23 26 23 14 8 13 22 22 14 9 6 2 3 7 12 14 17 21 31 51 55 48 44
23 19 18 17 17 14 11 12 15 17 19 20 20 22 22 22 22 22 20 20 21 21 24 18 9 7 13 18 17 16 14 13 15 19 22 20 17 14 18 26 34 42 48
20 18 17 16 13 9 7 8 11 12 14 15 14 14 14 15 16 16 16 20 22 26 31 21 24 22 19 20 22 23 23 22 22 24 30 33 28 24 20 20 25 30 36
23 19 16 14 8 4 5 5 4 4 3 4 4 8 12 13 14 14 15 16 20 26 33 37 35 30 32 32 33 36 32 27 18 16 24 23 28 26 24 21 18 18 20
25 21 18 14 11 8 5 4 4 3 3 4 5 8 10 11 12 13 15 19 18 19 25 29 29 25 23 25 24 25 28 26 22 23 20 16 26 23 21 27 27 19 16
28 25 19 17 15 10 8 7 9 6 3 3 6 9 11 13 14 15 16 15 19 25 28 31 30 27 26 24 23 20 20 25 19 23 17 14 14 28 32 31 27 29 30
32 27 23 21 18 15 12 10 9 6 4 5 8 8 9 12 15 15 14 15 16 20 27 33 36 33 30 28 28 23 16 20 21 24 20 20 16 17 28 27 27 28 32
36 31 29 25 22 16 14 14 13 13 10 13 15 12 8 7 10 12 15 14 18 24 26 27 29 30 29 27 27 28 28 25 24 23 20 24 28 25 22 30 32 33 30
38 36 34 28 24 20 18 17 17 15 15 14 15 17 14 14 12 11 14 17 18 21 22 23 24 25 23 24 26 27 31 34 30 28 33 35 33 26 28 27 28 27 27
40 38 36 32 26 23 21 19 17 17 17 16 14 18 19 14 17 16 14 12 16 20 20 20 23 22 23 21 23 23 26 27 30 28 29 27 25 26 25 23 23 23 21
39 37 36 33 29 26 25 23 19 19 19 18 18 17 15 15 17 18 19 19 22 26 26 25 26 24 25 26 28 25 26 26 27 28 23 19 19 23 24 19 19 22 17
47 36 35 34 30 27 26 23 20 17 19 19 16 15 15 13 13 18 22 23 24 26 29 29 28 28 26 26 27 32 28 24 22 19 21 21 18 19 25 24 23 22 19
46 34 34 33 30 27 24 20 17 13 10 12 11 9 12 15 17 20 24 25 26 27 24 22 26 31 33 31 30 26 23 18 14 17 13 20 18 21 26 25 25 27 26
Wind_Direction_850mb
184 183 168 171 186 187 194 218 214 215 218 219 239 240 249 259 262 262 274 274 280 285 269 270 277 270 257 229 219 219 219 199 181 169 179 180 170 169 160 163 159 162 161
205 223 222 232 237 246 226 240 229 222 229 245 247 257 265 268 259 263 271 277 275 268 265 251 261 265 254 240 228 220 218 216 207 193 176 176 173 172 172 173 172 168 161
226 240 245 253 275 252 246 236 234 252 253 253 256 262 269 269 264 273 277 275 270 265 268 259 246 259 248 234 228 224 226 224 219 208 200 191 191 185 182 183 188 180 172
248 260 263 264 272 260 246 252 249 257 260 259 260 266 268 266 268 280 282 275 270 266 270 263 246 247 249 240 234 226 227 227 229 228 218 208 205 202 200 199 194 193 190
258 262 265 264 265 253 244 244 238 261 257 258 275 286 283 283 279 280 283 278 272 264 267 256 254 247 250 251 247 237 222 219 227 223 226 225 218 213 212 208 206 207 216
244 251 251 246 258 271 265 265 267 271 274 277 281 279 276 280 275 275 283 283 272 256 262 248 264 252 253 257 256 252 244 226 230 225 223 223 226 225 226 228 228 228 227
240 247 255 255 267 272 255 262 271 282 276 279 277 282 276 275 282 283 273 285 275 253 252 258 257 264 265 261 257 251 252 244 244 226 226 224 225 227 228 230 231 233 234
262 266 261 257 265 275 267 271 279 273 283 278 278 271 285 280 272 251 298 295 286 264 227 249 260 275 283 264 260 261 263 246 245 250 234 229 227 228 229 230 232 235 235
277 275 270 278 281 283 268 270 276 282 272 267 266 253 269 267 301 219 244 81 199 207 247 257 263 276 281 272 292 294 245 237 236 248 234 237 227 229 229 233 232 233 237
272 291 282 274 286 296 293 285 285 287 271 256 245 242 244 261 294 284 252 262 257 260 280 297 284 276 287 286 290 293 264 237 247 240 235 237 240 236 233 232 233 236 237
252 286 285 291 302 301 295 281 275 274 277 262 242 244 255 270 281 282 288 260 265 250 278 291 305 271 291 295 297 295 286 271 261 243 244 246 239 240 236 238 236 235 235
297 287 287 298 306 308 295 287 270 259 258 248 253 261 271 277 284 276 281 276 280 257 272 284 288 260 255 287 313 295 280 266 269 257 253 256 243 240 239 239 238 236 238
288 287 292 297 299 302 296 269 266 264 256 252 252 263 273 278 279 279 282 286 288 284 290 278 284 236 232 261 254 239 52 16 343 273 267 266 261 245 241 243 245 243 244
279 284 280 286 297 300 277 253 245 251 254 259 262 266 271 275 277 278 274 275 282 285 288 277 274 219 220 229 206 196 185 242 285 271 269 275 268 255 246 242 243 244 247
273 269 272 282 300 299 279 251 238 240 246 253 262 267 270 273 276 276 268 260 263 276 290 262 251 220 211 212 225 238 253 263 280 283 268 269 255 257 257 253 244 243 245
263 259 267 276 288 288 275 255 248 251 260 266 267 270 274 279 285 291 279 256 259 266 276 278 259 262 255 255 256 259 269 268 273 280 281 268 256 261 257 260 254 247 244
250 246 259 264 261 259 273 249 244 258 259 270 282 293 295 292 288 289 292 286 273 272 277 281 284 279 278 276 269 264 264 262 268 290 300 270 250 260 261 273 248 246 250
249 248 254 233 225 221 221 197 193 220 255 272 300 318 313 306 304 301 288 272 271 272 279 287 289 285 284 285 286 277 259 249 256 289 314 286 242 245 261 263 249 237 254
242 239 234 228 224 220 209 187 171 168 193 212 274 286 294 302 301 304 304 290 271 265 269 273 273 274 280 285 284 281 252 248 258 283 297 254 245 256 253 250 245 250 274
242 235 230 224 221 220 222 207 210 221 222 273 288 284 291 289 280 277 283 290 295 288 278 274 274 275 272 270 275 269 266 254 252 261 271 279 299 304 249 237 248 258 265
241 231 227 228 224 223 231 227 235 245 265 288 278 261 267 299 313 296 291 289 290 295 293 282 278 276 272 271 273 278 280 284 281 278 280 274 274 278 272 250 254 268 269
238 233 232 233 235 236 233 230 243 250 275 282 278 265 273 285 306 313 287 291 299 299 292 284 277 281 280 272 270 275 282 285 292 278 280 280 280 274 264 251 254 254 263
236 236 236 238 241 246 242 239 240 258 279 286 277 258 253 258 277 300 304 306 317 323 305 284 296 295 288 285 280 281 285 284 282 284 281 278 269 259 259 255 257 251 237
235 240 241 242 247 246 246 248 251 261 271 277 283 275 264 263 280 281 288 299 312 322 315 292 280 277 277 276 282 288 293 292 286 280 277 276 275 257 253 251 245 245 238
211 238 243 247 247 245 246 246 250 253 264 273 273 274 263 270 260 272 283 286 292 298 300 294 278 271 264 270 275 283 294 299 308 289 276 277 272 263 261 250 238 227 225
211 215 241 247 243 240 238 242 242 244 268 280 287 281 263 259 255 262 266 274 290 297 295 291 291 278 270 269 269 272 277 279 304 318 295 295 282 262 263 259 241 230 228